{"data":{"norad_id":66013,"intl_designator":"2025-232J","name":"STARLINK-35307","alt_names":[],"object_type":"PAYLOAD","status":"ACTIVE","operator":null,"country":"US","launch_date":"2025-10-16","launch_site_code":"AFETR","launch_vehicle":null,"mission":null,"orbit_class":"UNKNOWN","rcs_meters":null,"size_class":null,"mass_kg":null,"dimensions":null,"purposes":["comms"],"wikipedia_slug":null,"has_3d_model":false,"image_url":null,"decayed_at":null,"tle_current":{"epoch":"2026-05-25T02:24:17.874432Z","epoch_age_seconds":63444,"freshness":"FRESH","line1":"1 66013U 25232J   26145.10020688  .00025629  00000+0  87392-3 0  9998","line2":"2 66013  53.1593 109.0423 0001210  72.5222 287.5911 15.30219522 35132","mean_motion":15.30219522,"eccentricity":0.000121,"inclination_deg":53.1593,"raan_deg":109.0423,"arg_perigee_deg":72.5222,"mean_anomaly_deg":287.5911,"bstar":0.00087392,"rev_number":3513,"period_min":94.104145143693,"perigee_km":474.3275323184,"apogee_km":475.98602941337,"semimajor_km":6853.2937808659,"source":"CELESTRAK","updated_at":"2026-05-25T13:38:21.014949Z"}}}